TimeCST,TemperatureF,Dew PointF,Humidity,Sea Level PressureIn,VisibilityMPH,Wind Direction,Wind SpeedMPH,Gust SpeedMPH,PrecipitationIn,Events,Conditions,WindDirDegrees,DateUTC
12:52 AM,55.9,-9999,N/A,29.79,8.0,South,16.1,-,0.00,Rain,Light Rain,190,2013-11-06 06:52:00
1:28 AM,57.2,-9999,N/A,29.77,2.0,South,15.0,24.2,0.06,Rain,Rain,180,2013-11-06 07:28:00
1:36 AM,55.4,-9999,N/A,29.77,6.0,South,13.8,-,0.06,Rain,Light Rain,190,2013-11-06 07:36:00
1:52 AM,57.0,-9999,N/A,29.76,5.0,South,11.5,21.9,0.09,Rain,Light Rain,180,2013-11-06 07:52:00
2:50 AM,50.0,-9999,N/A,29.77,3.0,WNW,20.7,28.8,0.06,Rain,Rain,290,2013-11-06 08:50:00
2:52 AM,48.9,-9999,N/A,29.78,3.0,WNW,18.4,28.8,0.06,Rain,Light Rain,290,2013-11-06 08:52:00
2:59 AM,48.2,-9999,N/A,29.77,8.0,WNW,17.3,-,0.00,Rain,Light Rain,290,2013-11-06 08:59:00
3:52 AM,43.0,-9999,N/A,29.79,10.0,NW,19.6,26.5,0.01,Rain,Light Rain,320,2013-11-06 09:52:00
4:52 AM,41.0,39.2,93,29.85,8.0,NW,15.0,25.3,0.00,Rain,Light Rain,310,2013-11-06 10:52:00
5:52 AM,39.2,35.6,87,29.86,10.0,NNW,19.6,26.5,0.00,,Overcast,330,2013-11-06 11:52:00
6:52 AM,37.9,35.6,91,29.91,10.0,NNW,15.0,-,N/A,,Overcast,330,2013-11-06 12:52:00
7:40 AM,37.4,35.6,93,29.93,10.0,NNW,23.0,-,N/A,,Overcast,330,2013-11-06 13:40:00
7:52 AM,37.9,35.6,91,29.96,10.0,NNW,19.6,28.8,N/A,,Overcast,330,2013-11-06 13:52:00
8:52 AM,37.9,35.6,91,29.98,10.0,NNW,23.0,28.8,N/A,,Overcast,330,2013-11-06 14:52:00
9:52 AM,39.0,39.0,100,30.01,10.0,NNW,15.0,-,N/A,,Mostly Cloudy,340,2013-11-06 15:52:00
10:52 AM,41.0,35.1,79,30.05,10.0,NNW,19.6,26.5,N/A,,Overcast,330,2013-11-06 16:52:00
11:52 AM,44.1,35.1,71,30.06,10.0,NNW,21.9,27.6,N/A,,Mostly Cloudy,330,2013-11-06 17:52:00
12:52 PM,44.1,33.1,65,30.06,10.0,NW,20.7,26.5,N/A,,Scattered Clouds,310,2013-11-06 18:52:00
1:52 PM,45.0,28.9,53,30.08,10.0,NW,18.4,26.5,N/A,,Clear,310,2013-11-06 19:52:00
2:52 PM,45.0,26.1,48,30.11,10.0,NW,21.9,26.5,N/A,,Clear,320,2013-11-06 20:52:00
3:52 PM,44.1,25.0,47,30.14,10.0,NNW,16.1,-,N/A,,Clear,330,2013-11-06 21:52:00
4:52 PM,39.9,24.1,53,30.17,10.0,NW,10.4,-,N/A,,Clear,310,2013-11-06 22:52:00
5:52 PM,34.0,26.1,73,30.20,10.0,WNW,8.1,-,N/A,,Clear,290,2013-11-06 23:52:00
6:52 PM,33.1,26.1,75,30.22,10.0,WNW,9.2,-,N/A,,Clear,290,2013-11-07 00:52:00
7:52 PM,33.1,25.0,72,30.22,10.0,NW,8.1,-,N/A,,Clear,310,2013-11-07 01:52:00
8:52 PM,28.9,24.1,82,30.24,10.0,WNW,6.9,-,N/A,,Clear,300,2013-11-07 02:52:00
9:52 PM,28.0,23.0,81,30.26,10.0,West,5.8,-,N/A,,Clear,280,2013-11-07 03:52:00
10:52 PM,27.0,23.0,85,30.27,10.0,West,5.8,-,N/A,,Clear,260,2013-11-07 04:52:00
11:52 PM,27.0,23.0,85,30.27,10.0,West,4.6,-,N/A,,Clear,280,2013-11-07 05:52:00